Flag for Germany Weather past 2 weeks in Naumburg (Saale), Saxony-Anhalt, Germany

Now
59 °F

Overcast.


Feels Like: 60 °F
Forecast: 47 / 69 °F
Wind: 3 mph from Northeast

Location: Gera-Leumnitz

Current Time: Jun 4, 2015 at 12:09:01 AM

Latest Report: Jun 3, 2015 at 11:00 PM


Visibility: 19 mi

Pressure: 30.30 "Hg

Humidity: 61%

Dew point: 46 °F

Location of Naumburg (Saale)Location

Historic Weather in Naumburg (Saale) — Graph

°F

Naumburg (Saale) temperature yesterday

Maximum temperature yesterday: 78 °F (at 2:00 PM)
Minimum temperature yesterday: 58 °F (at 3:00 AM)
Average temperature yesterday: 68 °F

Past Weeks' High & Low Weather Summary

 TemperatureHumidityPressure
High78 °F (Jun 3, 2:00 PM)99% (Jun 1, 11:00 PM)30.37 "Hg (Jun 1, 11:00 PM)
Low37 °F (May 22, 5:00 AM)34% (Jun 2, 7:00 PM)29.76 "Hg (May 29, 8:00 PM)
Average55 °F69%30.04 "Hg
* Reported May 19 10:00 PM — Jun 3 10:00 PM, Naumburg (Saale), Weather by CustomWeather, © 2015

Note: Actual official high and low records may vary slightly from our data, if they occured in-between our weather recording intervals... More about our weather records

Advertising

Naumburg (Saale) weather history for previous 24 hours

 ConditionsComfort  
Time TempWeatherWind HumidityBarometerVisibility
10:00 PM
Wed, Jun 3
61 °FOvercast.3 mph55%30.28 "Hg22 mi
9:00 PM64 °FOvercast.3 mph58%30.24 "Hg28 mi
8:00 PM66 °FPartly sunny.5 mph55%30.20 "Hg34 mi
7:00 PM70 °FScattered clouds.6 mph50%30.16 "Hg40 mi
6:00 PM72 °FPassing clouds.8 mph50%30.13 "Hg40 mi
5:00 PM75 °FPassing clouds.8 mph47%30.11 "Hg40 mi
4:00 PM75 °FScattered clouds.7 mph49%30.09 "Hg43 mi
3:00 PM76 °FScattered clouds.7 mph47%30.08 "Hg47 mi
2:00 PM78 °FScattered clouds.9 mph38%30.06 "Hg47 mi
1:00 PM77 °FPassing clouds.7 mph41%30.05 "Hg47 mi
12:00 PM76 °FPassing clouds.8 mph43%30.05 "Hg47 mi
11:00 AM73 °FPassing clouds.8 mph48%30.05 "Hg47 mi
10:00 AM71 °FPassing clouds.9 mph49%30.05 "Hg47 mi
9:00 AM70 °FPassing clouds.8 mph52%30.03 "Hg47 mi
8:00 AM66 °FPassing clouds.5 mph62%30.04 "Hg47 mi
7:00 AM62 °FPassing clouds.5 mph68%30.04 "Hg43 mi
6:00 AM59 °FPassing clouds.6 mph71%30.03 "Hg43 mi
5:00 AM60 °FClear.5 mph66%30.02 "Hg43 mi
4:00 AM59 °FClear.5 mph67%30.03 "Hg43 mi
3:00 AM58 °FClear.5 mph65%30.03 "Hg43 mi
2:00 AM61 °FOvercast.3 mph59%30.03 "Hg43 mi
1:00 AM63 °FOvercast.3 mph55%30.02 "Hg43 mi
12:00 AM65 °FOvercast.6 mph49%30.01 "Hg34 mi
Weather by CustomWeather, © 2015

See weather overviewHow to use our weather pages